www.pogodaiklimat.ru

Погода и климат >> Архив погоды >> Канада >> Pelly Bay


ПОГОДА в Pelly Bay

  • Прогноз погоды в Pelly Bay
  • Монитор погоды в Pelly Bay
  • Климат города

АРХИВ ПОГОДЫ в Pelly Bay

Время (UTC), дата Ветер
(напр.,м/с)
 
Видим.   Явления Облачность Т
(С)
Тd
(С)
f
(%)
Тe
(С)
Тes
(С)
Комфортность P
(гПа)
Po
(гПа)
Тmin
(С)
Tmax
(С)
R
(мм)
R24
(мм)
S
(см)
06 16.01 ЮВ 3 н/о н/о -25.2 -33 -33 опасность
обморожения
1014.3 970.4 -33.0 -25.2 91
09 16.01 ЮВ 1 н/о н/о -24.0 -28 -28 1014.6 970.8
12 16.01 В 7 н/о н/о -23.8 -37 -37 опасность
обморожения
1013.7 970.1 -28.0 -25.2
15 16.01 ЮВ 6 н/о н/о -24.8 -37 -37 опасность
обморожения
1013.6 970.0
18 16.01 В 5 н/о н/о -24.6 -35 -35 опасность
обморожения
1014.0 970.5 -31.2 -23.4
21 16.01 В 5 н/о н/о -24.6 -35 -35 опасность
обморожения
1015.1 971.6
00 17.01 Ю 2 н/о н/о -25.9 -31 -31 опасность
обморожения
1015.7 972.1 -26.0 -23.8
03 17.01 штиль 0 н/о н/о -25.1 -25 -25 1015.3 971.7
06 17.01 С 1 н/о н/о -24.3 -28 -28 1015.0 971.5 -26.0 -23.4 220
09 17.01 штиль 0 н/о н/о -23.9 -24 -24 1015.2 971.7
12 17.01 СЗ 3 н/о н/о -24.2 -32 -32 опасность
обморожения
1014.9 971.3 -26.0 -23.4
15 17.01 СЗ 3 н/о н/о -24.4 -32 -32 опасность
обморожения
1013.8 970.3
18 17.01 СЗ 3 н/о н/о -25.0 -34 -34 опасность
обморожения
1013.5 970.0 -26.0 -23.8
21 17.01 С 3 н/о н/о -25.8 -35 -35 опасность
обморожения
1013.1 969.6
00 18.01 СЗ 3 н/о н/о -27.1 -36 -36 опасность
обморожения
1012.7 969.2 -27.1 -24.2
03 18.01 З 3 н/о н/о -27.7 -36 -36 опасность
обморожения
1011.9 968.4
06 18.01 СЗ 2 н/о н/о -27.8 -34 -34 опасность
обморожения
1012.2 968.6 -27.8 -23.8
09 18.01 СЗ 2 н/о н/о -28.0 -34 -34 опасность
обморожения
1012.4 968.7
12 18.01 С 2 н/о н/о -28.8 -36 -36 опасность
обморожения
1013.0 969.2 -28.8 -23.8
15 18.01 СЗ 2 н/о н/о -30.0 -36 -36 опасность
обморожения
1013.2 969.3
18 18.01 С 1 н/о н/о -31.1 -35 -35 опасность
обморожения
1013.8 969.8 -31.1 -27.8
21 18.01 З 3 н/о н/о -31.4 -41 -41 опасность
обморожения
1014.2 970.1
00 19.01 З 3 н/о н/о -31.8 -41 -41 опасность
обморожения
1014.6 970.5 -31.8 -28.8
03 19.01 ЮВ 3 н/о н/о -31.8 -42 -42 опасность
обморожения
1014.8 970.6
06 19.01 ЮВ 1 н/о н/о -31.3 -36 -36 опасность
обморожения
1015.4 971.1 -32.0 -27.8
09 19.01 В 10 н/о н/о -32.1 -50 -50 опасность
обморожения
1016.3 971.9
12 19.01 В 7 н/о н/о -31.6 -47 -47 опасность
обморожения
1017.6 973.2 -32.3 -27.8
15 19.01 В 8 н/о н/о -31.0 -46 -46 опасность
обморожения
1017.8 973.4
18 19.01 В 3 н/о н/о -30.9 -41 -41 опасность
обморожения
1019.0 974.6 -32.3 -30.9
21 19.01 В 4 н/о н/о -30.5 -42 -42 опасность
обморожения
1020.2 975.7
00 20.01 В 6 н/о н/о -30.5 -44 -44 опасность
обморожения
1021.0 976.5 -32.3 -30.5
03 20.01 В 8 н/о н/о -29.9 -45 -45 опасность
обморожения
1021.7 977.2
06 20.01 В 2 н/о н/о -29.9 -36 -36 опасность
обморожения
1022.2 977.7 -32.3 -29.8 91
09 20.01 СВ 1 н/о н/о -29.7 -34 -34 опасность
обморожения
1022.6 978.1
12 20.01 С 3 н/о н/о -29.5 -39 -39 опасность
обморожения
1023.0 978.5 -30.6 -29.8
15 20.01 С 4 н/о н/о -29.5 -40 -40 опасность
обморожения
1022.7 978.3
18 20.01 СЗ 3 н/о н/о -29.7 -39 -39 опасность
обморожения
1023.0 978.5 -30.9 -29.5
21 20.01 СЗ 3 н/о н/о -30.2 -40 -40 опасность
обморожения
1023.4 978.9
00 21.01 СЗ 8 н/о н/о -30.6 -46 -46 опасность
обморожения
1023.5 979.0 -30.6 -29.5
03 21.01 СЗ 9 н/о н/о -30.7 -47 -47 опасность
обморожения
1022.8 978.3
06 21.01 СЗ 10 н/о н/о -31.2 -49 -49 опасность
обморожения
1022.5 978.0 -31.2 -29.5 51
09 21.01 СЗ 11 н/о н/о -31.8 -50 -50 опасность
обморожения
1023.2 978.6
12 21.01 СЗ 10 н/о н/о -31.8 -49 -49 опасность
обморожения
1022.9 978.3 -31.9 -29.5
15 21.01 СЗ 10 н/о н/о -32.6 -50 -50 опасность
обморожения
1022.8 978.1
18 21.01 СЗ 9 н/о н/о -33.3 -51 -51 опасность
обморожения
1022.7 978.0 -33.3 -31.2
21 21.01 СЗ 10 н/о н/о -33.7 -52 -52 опасность
обморожения
1023.4 978.6
00 22.01 З 10 н/о н/о -34.2 -53 -53 опасность
обморожения
1023.9 979.0 -34.2 -31.8
03 22.01 СЗ 9 н/о н/о -34.9 -53 -53 опасность
обморожения
1024.1 979.1
06 22.01 З 10 н/о н/о -34.0 -52 -52 опасность
обморожения
1024.3 979.3 -34.9 -31.2
09 22.01 СЗ 9 н/о н/о -33.6 -51 -51 опасность
обморожения
1025.2 980.2
12 22.01 СЗ 10 н/о н/о -34.0 -52 -52 опасность
обморожения
1025.6 980.5 -34.9 -31.2
15 22.01 СЗ 8 н/о н/о -33.7 -50 -50 опасность
обморожения
1026.2 981.1
18 22.01 СЗ 11 н/о н/о -33.8 -52 -52 опасность
обморожения
1025.7 980.6 -34.9 -33.5
21 22.01 З 12 н/о н/о -34.1 -54 -54 опасность
обморожения
1026.6 981.5
00 23.01 З 12 н/о н/о -34.1 -54 -54 опасность
обморожения
1026.8 981.7 -34.2 -33.6

 

Местоположение метеостанции Pelly Bay (Канада): широта 68.43 долгота -89.71 высота над уровнем моря 325 м.

В архиве по умолчанию представлена погода в Pelly Bay за последнюю неделю. Архивные данные за месяц целиком и за предыдущие месяцы, начиная с января 2011 года, Вы можете получить, выбрав интересующий диапазон дат из раскрывающегося списка и нажав кнопку "Ввод!".

Внимание! Время в таблицах - всемирное. Для получения местного времени необходимо прибавить поправку, которая в Pelly Bay равна -6 ч.

Смотрите также архив погоды в соседних городах и на ближайших метеорологических станциях:

Погода в Kugaaruk climate (Канада) (12 км)
Погода в Shepherd Bay (Канада) (157 км)
Погода в Spence bay (Канада) (198 км)
Погода в Gjoa Haven Climate (Канада) (251 км)
Погода в Wager Bay (Канада) (284 км)
Погода в Hall Beach Climate (Канада) (345 км)
Погода в Back River MAPS (Канада) (392 км)
Погода в Hat Island (Канада) (421 км)
Погода в Rowley Island (Канада) (436 км)
Погода в Baker Lake Climate (Канада) (536 км)

Пояснения к столбцам:

Ветер - указаны скорость ветра в м/с - средняя за 10 мин, порывы в срок и между сроками (в фигурных скобках) и направление, откуда дует ветер: С - северный, СВ - северо-восточный, В - восточный, ЮВ - юго-восточный, Ю - южный, ЮЗ - юго-западный, З - западный, СЗ - северо-западный.
Видимость - горизонтальная дальность видимости в метрах или километрах. При видимости от 1 до 10 км при отсутствии осадков обычно наблюдается дымка, при ухудшении видимости до 1 км и менее - туман. В сухую погоду видимость может ухудшаться дымом, пылью или мглою.
Явления - указаны атмосферные явления, наблюдавшиеся в срок или в последний час перед сроком; фигурными скобками обозначены явления, наблюдавшиеся между сроками (за 1-3 часа до срока); квадратными скобками обозначены град или гололедные отложения с указанием их диаметра в мм.
Облачность - указаны через наклонную черту общая и нижняя облачность в баллах и высота нижней границы облаков в метрах; квадратными скобками обозначены формы облаков: Ci - перистые, Cs - перисто-слоистые, Cc - перисто-кучевые, Ac - высококучевые, As - высокослоистые, Sc - слоисто-кучевые, Ns - слоисто-дождевые, Cu - кучевые, Cb - кучево-дождевые. Подробнее классификацию облаков см. в Атласе облаков (PDF).
T - Температура воздуха - температура, измеренная на высоте 2 м над землей.
Td - Температура точки росы - температура, при понижении до которой содержащийся в воздухе водяной пар достигнет насыщения.
f - Относительная влажность воздуха - влажноcть воздуха, измеренная на высоте 2 м над землей.
Te - Эффективная температура - температура, которую ощущает одетый по сезону человек в тени. Характеристика душности погоды. При расчете учитывается влияние влажности воздуха и скорости ветра на теплоощущения человека.
Tes - Эффективная температура на солнце - температура, которую ощущает человек, с поправкой на солнечный нагрев. Характеристика знойности погоды. Зависит от высоты солнца над горизонтом, облачности и скорости ветра. Ночью, в пасмурную погоду, а также при ветре 12 м/с и более поправка равна нулю.
P - Атмосферное давление - приведенное к уровню моря атмосферное давление.
Po - Атмосферное давление - измеренное на уровне метеостанции атмосферное давление.
Tmin - Минимальная температура - минимум температуры воздуха на высоте 2 м над землей.
Tmax - Максимальная температура - максимум температуры воздуха на высоте 2 м над землей.
R - Количество осадков - Количество выпавших осадков за период времени, мм. При наведении курсора мыши на число - период времени, за который выпало указанное количество осадков.
R24 - Количество осадков - Количество выпавших осадков за 24 часа, мм.
S - Снежный покров - Высота снежного покрова, см. При наведении курсора мыши на число - состояние снежного покрова и степень покрытия местности в баллах.